Home   Weather   Mainz   Past weeks

Flag for Germany Past Weather in Mainz, Rhineland-Palatinate, Germany — Yesterday and Last 2 Weeks

Now
56 °F

Sunny.


Feels Like: 55 °F
Forecast: 42 / 52 °F
Wind: 7 mph from South

Location: Wiesbaden Airport

Current Time: Apr 24, 2017 at 3:09:38 pm

Latest Report: Apr 24, 2017 at 1:58 pm


Visibility: N/A

Pressure: 30.01 "Hg

Humidity: 38%

Dew Point: 31 °F

Location of MainzLocation

Past Weather in Mainz — Graph

°F

Mainz Temperature Yesterday

Maximum temperature yesterday: 53 °F (at 5:58 pm)
Minimum temperature yesterday: 36 °F (at 5:43 am)
Average temperature yesterday: 44 °F

High & Low Weather Summary for the Past Weeks

 TemperatureHumidityPressure
High70 °F (Apr 9, 4:58 pm)96% (Apr 17, 8:58 am)30.63 "Hg (Apr 17, 8:58 am)
Low31 °F (Apr 24, 6:58 am)26% (Apr 20, 5:58 pm)29.90 "Hg (Apr 12, 7:58 pm)
Average47 °F64%30.19 "Hg
* Reported Apr 9 1:58 pm — Apr 24 1:58 pm, Mainz, Weather by CustomWeather, © 2017

Note: Actual official high and low records may vary slightly from our data, if they occured in-between our weather recording intervals... More about our weather records

Advertising

Mainz Weather History for the Previous 24 Hours

Scroll right to see more
 ConditionsComfort  
Time TempWeatherWind HumidityBarometerVisibility
1:58 pm
Mon, Apr 24
56 °FSunny.7 mph38%30.01 "HgN/A
12:58 pm53 °FSunny.5 mph44%30.04 "HgN/A
11:58 am52 °FSunny.8 mph47%30.08 "HgN/A
10:58 am48 °FSunny.6 mph58%30.09 "HgN/A
9:58 am45 °FSunny.No wind64%30.11 "HgN/A
8:58 am41 °FSunny.No wind76%30.13 "HgN/A
7:58 am36 °FSunny.No wind87%30.14 "HgN/A
6:58 am31 °FSunny.No wind88%30.15 "HgN/A
5:58 am32 °FClear.No wind87%30.15 "HgN/A
4:58 am32 °FClear.No wind87%30.17 "HgN/A
3:58 am32 °FClear.No wind87%30.19 "HgN/A
2:58 am34 °FClear.5 mph84%30.21 "HgN/A
1:58 am37 °FClear.3 mph81%30.22 "HgN/A
12:58 am39 °FClear.No wind75%30.24 "HgN/A
11:58 pm
Sun, Apr 23
39 °FClear.5 mph75%30.25 "HgN/A
10:58 pm45 °FPassing clouds.3 mph60%30.26 "HgN/A
9:58 pm45 °FOvercast.3 mph65%30.27 "HgN/A
8:58 pm46 °FPassing clouds.3 mph54%30.26 "HgN/A
7:58 pm48 °FScattered clouds.5 mph50%30.26 "HgN/A
6:58 pm51 °FOvercast.8 mph42%30.25 "HgN/A
5:58 pm53 °FPartly sunny.9 mph37%30.25 "HgN/A
4:58 pm51 °FOvercast.7 mph39%30.26 "HgN/A
3:58 pm52 °FOvercast.7 mph38%30.27 "HgN/A
Weather by CustomWeather, © 2017

See weather overviewHow to use our weather pages